Time,TemperatureF,DewpointF,PressureIn,WindDirection,WindDirectionDegrees,WindSpeedMPH,WindSpeedGustMPH,Humidity,HourlyPrecipIn,Conditions,Clouds,dailyrainin,SoftwareType,DateUTC
2013-02-16 00:02:00,25.0,15.0,30.16,WNW,298,6.0,15.0,66,0.00,,,0.00,,2013-02-16 06:02:00,
2013-02-16 00:22:00,24.0,16.0,30.16,WNW,303,7.0,15.0,71,0.00,,,0.00,,2013-02-16 06:22:00,
2013-02-16 00:32:00,24.0,16.0,30.16,WNW,303,7.0,15.0,71,0.00,,,0.00,,2013-02-16 06:32:00,
2013-02-16 00:42:00,24.0,16.0,30.16,WNW,303,7.0,15.0,71,0.00,,,0.00,,2013-02-16 06:42:00,
2013-02-16 00:52:00,23.0,14.0,30.16,NW,311,8.0,16.0,68,0.00,,,0.00,,2013-02-16 06:52:00,
2013-02-16 01:02:00,23.0,13.0,30.16,WNW,292,3.0,15.0,66,0.00,,,0.00,,2013-02-16 07:02:00,
2013-02-16 01:11:00,23.0,13.0,30.16,WNW,292,3.0,15.0,66,0.00,,,0.00,,2013-02-16 07:11:00,
2013-02-16 01:21:00,23.0,14.0,30.15,WNW,300,6.0,14.0,68,0.00,,,0.00,,2013-02-16 07:21:00,
2013-02-16 01:31:00,23.0,14.0,30.14,WNW,287,6.0,14.0,67,0.00,,,0.00,,2013-02-16 07:31:00,
2013-02-16 01:42:00,23.0,14.0,30.14,WNW,287,6.0,14.0,67,0.00,,,0.00,,2013-02-16 07:42:00,
2013-02-16 01:53:00,22.0,13.0,30.14,West,270,3.0,16.0,68,0.00,,,0.00,,2013-02-16 07:53:00,
2013-02-16 02:01:00,22.0,13.0,30.14,West,270,3.0,16.0,68,0.00,,,0.00,,2013-02-16 08:01:00,
2013-02-16 02:11:00,22.0,13.0,30.14,West,270,3.0,16.0,68,0.00,,,0.00,,2013-02-16 08:11:00,
2013-02-16 02:21:00,22.0,13.0,30.14,West,278,5.0,14.0,69,0.00,,,0.00,,2013-02-16 08:21:00,
2013-02-16 02:31:00,22.0,13.0,30.14,West,278,5.0,14.0,69,0.00,,,0.00,,2013-02-16 08:31:00,
2013-02-16 02:42:00,22.0,13.0,30.14,West,278,5.0,14.0,69,0.00,,,0.00,,2013-02-16 08:42:00,
2013-02-16 02:52:00,22.0,13.0,30.13,WNW,300,7.0,10.0,69,0.00,,,0.00,,2013-02-16 08:52:00,
2013-02-16 03:01:00,21.0,13.0,30.13,WNW,302,5.0,8.0,70,0.00,,,0.00,,2013-02-16 09:01:00,
2013-02-16 03:11:00,21.0,13.0,30.13,WNW,302,5.0,8.0,70,0.00,,,0.00,,2013-02-16 09:11:00,
2013-02-16 03:21:00,21.0,13.0,30.13,West,273,3.0,15.0,71,0.00,,,0.00,,2013-02-16 09:21:00,
2013-02-16 03:31:00,21.0,13.0,30.13,NW,308,6.0,9.0,71,0.00,,,0.00,,2013-02-16 09:31:00,
2013-02-16 03:42:00,21.0,13.0,30.13,NW,308,6.0,9.0,71,0.00,,,0.00,,2013-02-16 09:42:00,
2013-02-16 03:52:00,21.0,13.0,30.13,NW,308,6.0,9.0,71,0.00,,,0.00,,2013-02-16 09:52:00,
2013-02-16 04:01:00,20.0,12.0,30.13,West,274,2.0,8.0,72,0.00,,,0.00,,2013-02-16 10:01:00,
2013-02-16 04:11:00,20.0,12.0,30.13,West,274,2.0,8.0,72,0.00,,,0.00,,2013-02-16 10:11:00,
2013-02-16 04:21:00,20.0,13.0,30.13,WNW,284,2.0,6.0,73,0.00,,,0.00,,2013-02-16 10:21:00,
2013-02-16 04:31:00,20.0,13.0,30.13,WNW,284,2.0,6.0,73,0.00,,,0.00,,2013-02-16 10:31:00,
2013-02-16 04:41:00,20.0,13.0,30.13,WNW,284,2.0,6.0,73,0.00,,,0.00,,2013-02-16 10:41:00,
2013-02-16 04:52:00,20.0,13.0,30.13,WNW,284,2.0,6.0,73,0.00,,,0.00,,2013-02-16 10:52:00,
2013-02-16 05:52:00,18.0,10.0,30.15,WNW,299,6.0,9.0,70,0.00,,,0.00,,2013-02-16 11:52:00,
2013-02-16 06:02:00,18.0,10.0,30.14,NW,320,3.0,8.0,70,0.00,,,0.00,,2013-02-16 12:02:00,
2013-02-16 06:12:00,18.0,10.0,30.14,NW,320,3.0,8.0,70,0.00,,,0.00,,2013-02-16 12:12:00,
2013-02-16 06:22:00,18.0,10.0,30.14,NW,320,3.0,8.0,70,0.00,,,0.00,,2013-02-16 12:22:00,
2013-02-16 06:32:00,18.0,11.0,30.15,WNW,294,4.0,10.0,73,0.00,,,0.00,,2013-02-16 12:32:00,
2013-02-16 06:42:00,18.0,11.0,30.15,WNW,294,4.0,10.0,73,0.00,,,0.00,,2013-02-16 12:42:00,
2013-02-16 06:52:00,17.0,10.0,30.15,NNW,338,5.0,10.0,74,0.00,,,0.00,,2013-02-16 12:52:00,
2013-02-16 07:02:00,17.0,10.0,30.15,WNW,297,6.0,10.0,73,0.00,,,0.00,,2013-02-16 13:02:00,
2013-02-16 07:11:00,17.0,10.0,30.16,NW,306,8.0,15.0,74,0.00,,,0.00,,2013-02-16 13:11:00,
2013-02-16 07:21:00,17.0,10.0,30.16,NW,306,8.0,15.0,74,0.00,,,0.00,,2013-02-16 13:21:00,
2013-02-16 07:31:00,17.0,10.0,30.16,NW,325,9.0,15.0,73,0.00,,,0.00,,2013-02-16 13:31:00,
2013-02-16 07:41:00,17.0,10.0,30.16,NW,325,9.0,15.0,73,0.00,,,0.00,,2013-02-16 13:41:00,
2013-02-16 07:51:00,17.0,9.0,30.16,NW,304,9.0,16.0,71,0.00,,,0.00,,2013-02-16 13:51:00,
2013-02-16 08:01:00,17.0,9.0,30.17,NW,315,7.0,16.0,70,0.00,,,0.00,,2013-02-16 14:01:00,
2013-02-16 08:11:00,17.0,9.0,30.17,NW,315,7.0,16.0,70,0.00,,,0.00,,2013-02-16 14:11:00,
2013-02-16 08:21:00,18.0,10.0,30.17,West,274,8.0,18.0,70,0.00,,,0.00,,2013-02-16 14:21:00,
2013-02-16 08:32:00,18.0,10.0,30.17,NW,318,16.0,20.0,69,0.00,,,0.00,,2013-02-16 14:32:00,
2013-02-16 08:41:00,18.0,10.0,30.17,NW,318,16.0,20.0,69,0.00,,,0.00,,2013-02-16 14:41:00,
2013-02-16 08:52:00,18.0,10.0,30.17,WNW,287,7.0,16.0,69,0.00,,,0.00,,2013-02-16 14:52:00,
2013-02-16 09:01:00,18.0,10.0,30.17,West,278,5.0,14.0,69,0.00,,,0.00,,2013-02-16 15:01:00,
2013-02-16 09:11:00,18.0,10.0,30.17,West,278,5.0,14.0,69,0.00,,,0.00,,2013-02-16 15:11:00,
2013-02-16 09:21:00,18.0,9.0,30.17,WNW,285,7.0,23.0,68,0.00,,,0.00,,2013-02-16 15:21:00,
2013-02-16 09:31:00,18.0,9.0,30.17,WNW,288,8.0,24.0,67,0.00,,,0.00,,2013-02-16 15:31:00,
2013-02-16 09:42:00,18.0,9.0,30.17,WNW,288,8.0,24.0,67,0.00,,,0.00,,2013-02-16 15:42:00,
2013-02-16 09:52:00,19.0,9.0,30.16,WNW,294,5.0,16.0,64,0.00,,,0.00,,2013-02-16 15:52:00,
2013-02-16 10:01:00,19.0,8.0,30.17,WNW,292,10.0,16.0,62,0.00,,,0.00,,2013-02-16 16:01:00,
2013-02-16 10:11:00,19.0,8.0,30.17,WNW,292,10.0,16.0,62,0.00,,,0.00,,2013-02-16 16:11:00,
2013-02-16 10:21:00,20.0,8.0,30.17,WNW,292,12.0,18.0,60,0.00,,,0.00,,2013-02-16 16:21:00,
2013-02-16 10:32:00,20.0,8.0,30.17,NW,318,10.0,15.0,60,0.00,,,0.00,,2013-02-16 16:32:00,
2013-02-16 10:41:00,20.0,8.0,30.17,NW,318,10.0,15.0,60,0.00,,,0.00,,2013-02-16 16:41:00,
2013-02-16 10:52:00,20.0,8.0,30.17,NW,318,10.0,15.0,60,0.00,,,0.00,,2013-02-16 16:52:00,
2013-02-16 11:01:00,20.0,7.0,30.17,NNW,338,14.0,18.0,57,0.00,,,0.00,,2013-02-16 17:01:00,
2013-02-16 11:11:00,20.0,7.0,30.17,NNW,338,14.0,18.0,57,0.00,,,0.00,,2013-02-16 17:11:00,
2013-02-16 11:22:00,21.0,8.0,30.17,North,349,13.0,18.0,56,0.00,,,0.00,,2013-02-16 17:22:00,
2013-02-16 11:32:00,21.0,7.0,30.17,WNW,288,10.0,18.0,54,0.00,,,0.00,,2013-02-16 17:32:00,
2013-02-16 11:42:00,21.0,7.0,30.17,WNW,288,10.0,18.0,54,0.00,,,0.00,,2013-02-16 17:42:00,
2013-02-16 11:52:00,22.0,8.0,30.16,NW,314,9.0,21.0,54,0.00,,,0.00,,2013-02-16 17:52:00,
2013-02-16 12:02:00,22.0,8.0,30.16,NW,314,9.0,21.0,54,0.00,,,0.00,,2013-02-16 18:02:00,
2013-02-16 12:11:00,22.0,8.0,30.15,NW,308,17.0,29.0,54,0.00,,,0.00,,2013-02-16 18:11:00,
2013-02-16 12:21:00,22.0,8.0,30.15,NW,308,17.0,29.0,54,0.00,,,0.00,,2013-02-16 18:21:00,
2013-02-16 12:33:00,22.0,8.0,30.15,NW,308,17.0,29.0,54,0.00,,,0.00,,2013-02-16 18:33:00,
2013-02-16 12:42:00,22.0,8.0,30.15,NW,308,17.0,29.0,54,0.00,,,0.00,,2013-02-16 18:42:00,
2013-02-16 12:52:00,22.0,8.0,30.15,NW,308,17.0,29.0,54,0.00,,,0.00,,2013-02-16 18:52:00,
2013-02-16 13:02:00,23.0,8.0,30.14,NW,310,10.0,18.0,51,0.00,,,0.00,,2013-02-16 19:02:00,
2013-02-16 13:11:00,23.0,8.0,30.14,NW,310,10.0,18.0,51,0.00,,,0.00,,2013-02-16 19:11:00,
2013-02-16 13:21:00,23.0,8.0,30.14,WNW,282,10.0,24.0,52,0.00,,,0.00,,2013-02-16 19:21:00,
2013-02-16 13:31:00,24.0,9.0,30.14,NW,308,4.0,9.0,52,0.00,,,0.00,,2013-02-16 19:31:00,
2013-02-16 13:42:00,24.0,9.0,30.14,NW,308,4.0,9.0,52,0.00,,,0.00,,2013-02-16 19:42:00,
2013-02-16 13:52:00,23.0,8.0,30.14,WNW,289,9.0,18.0,51,0.00,,,0.00,,2013-02-16 19:52:00,
2013-02-16 14:01:00,23.0,8.0,30.14,WNW,289,9.0,18.0,51,0.00,,,0.00,,2013-02-16 20:01:00,
2013-02-16 14:11:00,23.0,8.0,30.14,WNW,289,9.0,18.0,51,0.00,,,0.00,,2013-02-16 20:11:00,
2013-02-16 14:21:00,23.0,8.0,30.14,WNW,289,9.0,18.0,51,0.00,,,0.00,,2013-02-16 20:21:00,
2013-02-16 14:32:00,24.0,9.0,30.13,NW,323,10.0,15.0,53,0.00,,,0.00,,2013-02-16 20:32:00,
2013-02-16 14:42:00,24.0,9.0,30.13,NW,323,10.0,15.0,53,0.00,,,0.00,,2013-02-16 20:42:00,
2013-02-16 14:52:00,24.0,9.0,30.13,NW,323,10.0,15.0,53,0.00,,,0.00,,2013-02-16 20:52:00,
2013-02-16 15:02:00,24.0,9.0,30.12,WNW,291,5.0,10.0,53,0.00,,,0.00,,2013-02-16 21:02:00,
2013-02-16 15:11:00,24.0,9.0,30.12,WNW,291,5.0,10.0,53,0.00,,,0.00,,2013-02-16 21:11:00,
2013-02-16 15:21:00,24.0,9.0,30.12,WNW,291,5.0,10.0,53,0.00,,,0.00,,2013-02-16 21:21:00,
2013-02-16 15:32:00,24.0,10.0,30.12,WNW,291,5.0,15.0,54,0.00,,,0.00,,2013-02-16 21:32:00,
2013-02-16 15:41:00,24.0,10.0,30.12,WNW,291,5.0,15.0,54,0.00,,,0.00,,2013-02-16 21:41:00,
2013-02-16 15:52:00,25.0,11.0,30.12,WNW,291,7.0,18.0,55,0.00,,,0.00,,2013-02-16 21:52:00,
2013-02-16 16:01:00,25.0,12.0,30.12,WNW,290,11.0,18.0,56,0.00,,,0.00,,2013-02-16 22:01:00,
2013-02-16 16:11:00,25.0,12.0,30.12,WNW,290,11.0,18.0,56,0.00,,,0.00,,2013-02-16 22:11:00,
2013-02-16 16:21:00,24.0,11.0,30.12,WNW,287,7.0,18.0,58,0.00,,,0.00,,2013-02-16 22:21:00,
2013-02-16 16:32:00,24.0,12.0,30.12,NW,317,5.0,15.0,59,0.00,,,0.00,,2013-02-16 22:32:00,
2013-02-16 16:42:00,24.0,12.0,30.12,NW,317,5.0,15.0,59,0.00,,,0.00,,2013-02-16 22:42:00,
2013-02-16 16:52:00,24.0,12.0,30.12,NW,317,5.0,15.0,59,0.00,,,0.00,,2013-02-16 22:52:00,
2013-02-16 17:02:00,24.0,12.0,30.12,NW,317,5.0,15.0,59,0.00,,,0.00,,2013-02-16 23:02:00,
2013-02-16 17:11:00,25.0,13.0,30.12,WNW,299,4.0,8.0,59,0.00,,,0.00,,2013-02-16 23:11:00,
2013-02-16 17:21:00,25.0,13.0,30.12,WNW,299,4.0,8.0,59,0.00,,,0.00,,2013-02-16 23:21:00,
2013-02-16 17:32:00,25.0,12.0,30.12,WNW,287,13.0,23.0,58,0.00,,,0.00,,2013-02-16 23:32:00,
2013-02-16 17:42:00,25.0,12.0,30.12,WNW,287,13.0,23.0,58,0.00,,,0.00,,2013-02-16 23:42:00,
2013-02-16 17:52:00,25.0,12.0,30.12,West,259,6.0,8.0,58,0.00,,,0.00,,2013-02-16 23:52:00,
2013-02-16 18:02:00,25.0,13.0,30.12,NW,310,6.0,9.0,59,0.00,,,0.00,,2013-02-17 00:02:00,
2013-02-16 18:12:00,25.0,13.0,30.12,NW,310,6.0,9.0,59,0.00,,,0.00,,2013-02-17 00:12:00,
2013-02-16 18:21:00,25.0,13.0,30.12,WNW,286,5.0,16.0,61,0.00,,,0.00,,2013-02-17 00:21:00,
2013-02-16 18:31:00,25.0,13.0,30.12,WNW,286,5.0,16.0,61,0.00,,,0.00,,2013-02-17 00:31:00,
2013-02-16 18:41:00,25.0,13.0,30.12,WNW,286,5.0,16.0,61,0.00,,,0.00,,2013-02-17 00:41:00,
2013-02-16 18:52:00,25.0,13.0,30.13,NW,307,10.0,14.0,61,0.00,,,0.00,,2013-02-17 00:52:00,
2013-02-16 19:01:00,25.0,13.0,30.13,NW,307,10.0,14.0,61,0.00,,,0.00,,2013-02-17 01:01:00,
2013-02-16 19:11:00,25.0,13.0,30.13,NW,307,10.0,14.0,61,0.00,,,0.00,,2013-02-17 01:11:00,
2013-02-16 19:21:00,24.0,12.0,30.14,WNW,298,16.0,23.0,59,0.00,,,0.00,,2013-02-17 01:21:00,
2013-02-16 19:31:00,24.0,11.0,30.14,WNW,285,13.0,20.0,58,0.00,,,0.00,,2013-02-17 01:31:00,
2013-02-16 19:42:00,24.0,11.0,30.14,WNW,285,13.0,20.0,58,0.00,,,0.00,,2013-02-17 01:42:00,
2013-02-16 19:52:00,24.0,13.0,30.14,NW,319,5.0,14.0,61,0.00,,,0.00,,2013-02-17 01:52:00,
2013-02-16 20:01:00,23.0,12.0,30.14,NW,326,5.0,14.0,63,0.00,,,0.00,,2013-02-17 02:01:00,
2013-02-16 20:11:00,23.0,12.0,30.14,NW,326,5.0,14.0,63,0.00,,,0.00,,2013-02-17 02:11:00,
2013-02-16 20:21:00,23.0,13.0,30.14,NW,319,7.0,15.0,64,0.00,,,0.00,,2013-02-17 02:21:00,
2013-02-16 20:31:00,23.0,13.0,30.14,NW,319,7.0,15.0,64,0.00,,,0.00,,2013-02-17 02:31:00,
2013-02-16 20:41:00,23.0,13.0,30.14,NW,319,7.0,15.0,64,0.00,,,0.00,,2013-02-17 02:41:00,
2013-02-16 20:52:00,23.0,13.0,30.15,NNW,334,14.0,24.0,64,0.00,,,0.00,,2013-02-17 02:52:00,
2013-02-16 21:01:00,23.0,13.0,30.15,NNW,334,14.0,24.0,64,0.00,,,0.00,,2013-02-17 03:01:00,
2013-02-16 21:11:00,23.0,13.0,30.15,NNW,334,14.0,24.0,64,0.00,,,0.00,,2013-02-17 03:11:00,
2013-02-16 21:21:00,21.0,11.0,30.16,NW,316,10.0,16.0,64,0.00,,,0.00,,2013-02-17 03:21:00,
2013-02-16 21:31:00,21.0,11.0,30.16,NNW,337,7.0,15.0,66,0.00,,,0.00,,2013-02-17 03:31:00,
2013-02-16 21:42:00,21.0,11.0,30.16,NNW,337,7.0,15.0,66,0.00,,,0.00,,2013-02-17 03:42:00,
2013-02-16 21:52:00,20.0,11.0,30.17,NW,320,8.0,20.0,66,0.00,,,0.00,,2013-02-17 03:52:00,
2013-02-16 22:01:00,20.0,10.0,30.17,North,357,11.0,16.0,65,0.00,,,0.00,,2013-02-17 04:01:00,
2013-02-16 22:11:00,19.0,8.0,30.17,NNE,12,12.0,20.0,61,0.00,,,0.00,,2013-02-17 04:11:00,
2013-02-16 22:21:00,19.0,8.0,30.17,NNE,12,12.0,20.0,61,0.00,,,0.00,,2013-02-17 04:21:00,
2013-02-16 22:31:00,18.0,6.0,30.17,NNW,332,16.0,21.0,59,0.00,,,0.00,,2013-02-17 04:31:00,
2013-02-16 22:41:00,18.0,6.0,30.17,NNW,332,16.0,21.0,59,0.00,,,0.00,,2013-02-17 04:41:00,
2013-02-16 22:52:00,18.0,6.0,30.17,NNW,332,16.0,21.0,59,0.00,,,0.00,,2013-02-17 04:52:00,
2013-02-16 23:01:00,18.0,7.0,30.17,NW,312,10.0,14.0,61,0.00,,,0.00,,2013-02-17 05:01:00,
2013-02-16 23:12:00,18.0,8.0,30.17,NNW,346,5.0,10.0,63,0.00,,,0.00,,2013-02-17 05:12:00,
2013-02-16 23:22:00,18.0,8.0,30.17,NNW,346,5.0,10.0,63,0.00,,,0.00,,2013-02-17 05:22:00,
2013-02-16 23:33:00,18.0,8.0,30.17,NNW,346,5.0,10.0,63,0.00,,,0.00,,2013-02-17 05:33:00,
2013-02-16 23:42:00,18.0,8.0,30.17,NNW,346,5.0,10.0,63,0.00,,,0.00,,2013-02-17 05:42:00,
2013-02-16 23:52:00,17.0,6.0,30.17,NNW,330,9.0,10.0,61,0.00,,,0.00,,2013-02-17 05:52:00,